Preview of NWS' New Version of Forecast
This preview is not operational and should not be used for support decisions.

Regional Weather Roundup (RWR)

Issued by National Weather Service (NWS)

                            
000
ASUS45 KABQ 181001
RWRNM 
NEW MEXICO REGIONAL WEATHER ROUNDUP
NATIONAL WEATHER SERVICE ALBUQUERQUE NM
400 AM MDT SUN AUG 18 2019

NOTE: "FAIR" MEANS FEW OR NO CLOUDS BELOW 12,000 FEET AGL WITH NO
       SIGNIFICANT WEATHER OR OBSTRUCTIONS TO VISION.

      THIS PRODUCT IS RELEASED AS TWO VERSIONS.  ONE VERSION NEAR
      THE TOP OF THE HOUR CONTAINING PRELIMINARY DATA FROM ALBUQUERQUE
      AND OTHER STATIONS.  A FINAL VERSION WITH ADDITIONAL DATA IS 
      ISSUED ABOUT 10 MINUTES AFTER THE HOUR.
 
NMZ501-503-504-510>518-181100-
NORTHWEST PLATEAU/NORTHCENTRAL MOUNTAINS
  
CITY           SKY/WX    TMP DP  RH WIND       PRES   REMARKS
FARMINGTON     FAIR      56  21  25 NE6       30.06R                  
LOS ALAMOS       N/A     69  17  14 W13       30.19S                  
SANTA FE       FAIR      57  30  35 N5        30.12R                  
TAOS             N/A     47  27  45 N5        30.20S                  
ANGEL FIRE     FAIR      32  28  82 CALM      30.31S                  

$$
NMZ402-403-502-505>509-181100-
WESTCENTRAL MOUNTAINS/SOUTHWEST MOUNTAINS
  
CITY           SKY/WX    TMP DP  RH WIND       PRES   REMARKS
GALLUP         FAIR      59  30  33 SW3       30.19R                  
GRANTS         FAIR      61  33  34 NW3       30.20S                  
SILVER CITY    FAIR      63  39  41 NW12      30.11R                  

$$
NMZ407-409-411-412-181100-
SOUTHERN DESERTS
  
CITY           SKY/WX    TMP DP  RH WIND       PRES   REMARKS
DEMING         FAIR      72  36  26 W10       30.01F                  
LAS CRUCES     FAIR      70  35  27 NW7       30.00S                  
HOLLOMAN AFB   FAIR      74  36  25 SE5       29.97R                  
ALAMOGORDO     FAIR      75  32  20 SE3       29.96S                  
T OR C         MOCLDY    79  36  21 W12       30.02S                  

$$
NMZ519>523-181100-
CENTRAL VALLEYS/CENTRAL HIGHLANDS
  
CITY           SKY/WX    TMP DP  RH WIND       PRES   REMARKS
ALBUQUERQUE    MOCLDY    66  35  31 SE9       30.07R                  
CLINES CORNERS FAIR      60  28  29 W8        30.19R                  
BELEN          FAIR      65  31  28 CALM      30.07R                  
SOCORRO        FAIR      72  33  24 SE3       30.02S                  

$$
NMZ524>526-539-540-181100-
SOUTHCENTRAL MOUNTAINS
  
CITY           SKY/WX    TMP DP  RH WIND       PRES   REMARKS
RUIDOSO        MOCLDY    66  39  37 W6        30.19S                  

$$
NMZ527>531-181100-
NORTHEAST HIGHLANDS/NORTHEAST PLAINS
  
CITY           SKY/WX    TMP DP  RH WIND       PRES   REMARKS
LAS VEGAS      FAIR      53  27  36 NE6       30.15R                  
RATON          FAIR      58  38  47 N13       30.08S                  
CLAYTON        FAIR      66  50  56 NW13      29.96R                  

$$
NMZ532>537-181100-
EASTCENTRAL PLAINS
  
CITY           SKY/WX    TMP DP  RH WIND       PRES   REMARKS
TUCUMCARI      FAIR      68  41  37 W7        29.88R                  
CANNON AFB     FAIR      71  53  51 W6        29.94S                  
CLOVIS AIRPORT FAIR      70  55  59 S9        29.95R                  

$$
NMZ028-029-538-181100-
SOUTHEAST PLAINS
  
CITY           SKY/WX    TMP DP  RH WIND       PRES   REMARKS
ROSWELL        FAIR      75  51  43 CALM      29.88R                  
ARTESIA        FAIR      77  46  33 SW6       29.89F                  
CARLSBAD       FAIR      76  57  51 SW5       29.86S                  
HOBBS          FAIR      79  59  50 S18G26    29.91R                  


$$